Weather History for Jefferson City, MO

Change the Weather History Date:

Wednesday, November 14, 2012

  Actual Average Record
Temperature  
Mean Temperature 44 °F -  
Max Temperature 55 °F 57 °F 81 °F (1989)
Min Temperature 30 °F 32 °F 4 °F (1986)
Degree Days  
Heating Degree Days 21    
Moisture  
Dew Point 25 °F    
Average Humidity 54    
Maximum Humidity 75    
Minimum Humidity 26    
Precipitation  
Precipitation 0.00 in - - ()
Sea Level Pressure  
Sea Level Pressure 30.38 in    
Wind  
Wind Speed 4 mph (SE)    
Max Wind Speed 6 mph    
Max Gust Speed -    
Visibility 10 miles    
Events      
Averages and records for this station are not official NWS values.
T = Trace of Precipitation, MM = Missing Value Source: NWS Daily Summary

Daily Weather History Graph

Daily Weather History Graph

Search for Another Location

Airport:

Trip Planner

Search our weather history database for the weather conditions in past years. The results will help you decide how hot, cold, wet, or windy it might be!

Date:

Astronomy

Nov. 14, 2012 Rise Set
Actual Time 6:50 AM CST 4:55 PM CST
Civil Twilight 6:21 AM CST 5:24 PM CST
Nautical Twilight 5:49 AM CST 5:56 PM CST
Astronomical Twilight 5:18 AM CST 6:27 PM CST
Moon 7:39 AM CST (11/14) 5:45 PM CST (11/14)
Length of Visible Light 11h 02m
Length of Day
10h 05m
New Moon, 1% of the Moon is Illuminated
Nov 14
New Moon
Nov 20
First Quarter
Nov 28
Full
Dec 6
Last Quarter
Dec 13
New

Hourly Weather History & Observations

Time (CST) Temp. Windchill Dew Point Humidity Pressure Visibility Wind Dir Wind Speed Gust Speed Precip Events Conditions
12:53 AM 39.0 °F 34.8 °F 23.0 °F 53% 30.42 in 10.0 mi ESE 5.8 mph - N/A   Clear
1:53 AM 35.1 °F 31.0 °F 25.0 °F 67% 30.43 in 10.0 mi ESE 4.6 mph - N/A   Clear
2:53 AM 37.9 °F 34.4 °F 25.0 °F 60% 30.42 in 10.0 mi ESE 4.6 mph - N/A   Clear
3:53 AM 36.0 °F 31.1 °F 26.1 °F 67% 30.42 in 10.0 mi SE 5.8 mph - N/A   Clear
4:53 AM 35.1 °F 30.1 °F 26.1 °F 70% 30.42 in 10.0 mi ESE 5.8 mph - N/A   Clear
5:53 AM 34.0 °F 29.8 °F 26.1 °F 73% 30.42 in 10.0 mi SE 4.6 mph - N/A   Clear
6:53 AM 33.1 °F - 26.1 °F 75% 30.43 in 10.0 mi Calm Calm - N/A   Clear
7:53 AM 34.0 °F 28.8 °F 27.0 °F 75% 30.45 in 10.0 mi SE 5.8 mph - N/A   Clear
8:53 AM 41.0 °F 37.1 °F 28.0 °F 60% 30.45 in 10.0 mi ESE 5.8 mph - N/A   Clear
9:53 AM 45.0 °F 42.6 °F 28.9 °F 53% 30.45 in 10.0 mi Variable 4.6 mph - N/A   Clear
10:53 AM 50.0 °F - 27.0 °F 41% 30.43 in 10.0 mi Calm Calm - N/A   Clear
11:53 AM 52.0 °F - 27.0 °F 38% 30.40 in 10.0 mi Calm Calm - N/A   Clear
12:53 PM 55.0 °F - 24.1 °F 30% 30.37 in 10.0 mi SE 4.6 mph - N/A   Clear
1:53 PM 55.9 °F - 21.0 °F 26% 30.34 in 10.0 mi Calm Calm - 0.00 in   Clear
2:53 PM 55.9 °F - 21.9 °F 27% 30.33 in 10.0 mi SE 3.5 mph - 0.00 in   Clear
3:53 PM 55.0 °F - 21.0 °F 27% 30.32 in 10.0 mi ESE 4.6 mph - 0.00 in   Clear
4:53 PM 51.1 °F - 23.0 °F 33% 30.32 in 10.0 mi SE 4.6 mph - 0.00 in   Clear
5:53 PM 48.9 °F - 19.9 °F 32% 30.32 in 10.0 mi East 4.6 mph - N/A   Clear
6:53 PM 39.9 °F 35.8 °F 25.0 °F 55% 30.32 in 10.0 mi ESE 5.8 mph - N/A   Clear
7:53 PM 37.9 °F 33.5 °F 25.0 °F 60% 30.33 in 10.0 mi SE 5.8 mph - N/A   Clear
8:53 PM 37.0 °F 34.5 °F 25.0 °F 62% 30.33 in 10.0 mi SE 3.5 mph - N/A   Clear
9:53 PM 34.0 °F 28.8 °F 24.1 °F 67% 30.33 in 10.0 mi SE 5.8 mph - N/A   Clear
10:53 PM 34.0 °F - 24.1 °F 67% 30.32 in 10.0 mi Calm Calm - N/A   Clear
11:53 PM 30.9 °F 27.5 °F 23.0 °F 72% 30.32 in 10.0 mi ESE 3.5 mph - N/A   Clear